Location: Unspecified
(58.9933°N, 5.6375°E)
Time: 05:34:25
(UTC+02:00)

Cosmos 2058 - Visible Passes

Search period start: 28 June 2017 00:00
Search period end: 08 July 2017 00:00
Orbit: 565 x 584 km, 82.5° (Epoch: 26 June)

Date Brightness Start Highest point End Pass type
(mag) Time Alt. Az. Time Alt. Az. Time Alt. Az.
28 Jun 5.6 01:41:09 10° W 01:43:44 15° NW 01:46:18 10° NNW visible
29 Jun 5.7 01:45:11 10° W 01:47:17 13° NW 01:49:22 10° NNW visible
30 Jun 5.9 01:49:24 10° WNW 01:50:50 11° NW 01:52:17 10° NNW visible
01 Jul 4.3 00:12:14 10° SW 00:16:13 39° WNW 00:20:14 10° N visible
02 Jul 4.7 00:15:50 10° SW 00:19:40 33° WNW 00:23:32 10° N visible
03 Jul 5.0 00:19:28 10° WSW 00:23:08 28° WNW 00:26:49 10° N visible
04 Jul 5.3 00:23:11 10° WSW 00:26:37 24° WNW 00:30:05 10° N visible
05 Jul 5.6 00:26:57 10° WSW 00:30:07 20° WNW 00:33:18 10° N visible
06 Jul 5.7 00:30:47 10° W 00:33:38 17° NW 00:36:29 10° NNW visible
07 Jul 5.8 00:34:43 10° W 00:37:09 15° NW 00:39:37 10° NNW visible
